Year,Month,Day,Hour,Minute,Value (Times are PST for temperature in C)
2014,05,01,00,00,13.80
2014,05,01,00,01,13.80
2014,05,01,00,02,13.70
2014,05,01,00,03,13.70
2014,05,01,00,04,13.70
2014,05,01,00,05,13.70
2014,05,01,00,06,13.60
2014,05,01,00,07,13.60
2014,05,01,00,08,13.60
2014,05,01,00,09,13.60
2014,05,01,00,10,13.50
2014,05,01,00,11,13.50
2014,05,01,00,12,13.40
2014,05,01,00,13,13.40
2014,05,01,00,14,13.40
2014,05,01,00,15,13.40
2014,05,01,00,16,13.30
2014,05,01,00,17,13.30
2014,05,01,00,18,13.30
2014,05,01,00,19,13.30
2014,05,01,00,20,13.20
2014,05,01,00,21,13.20
2014,05,01,00,22,13.20
2014,05,01,00,23,13.20
2014,05,01,00,24,13.20
2014,05,01,00,25,13.10
2014,05,01,00,26,13.10
2014,05,01,00,27,13.10
2014,05,01,00,28,13.10
2014,05,01,00,29,13.00
2014,05,01,00,30,13.00
2014,05,01,00,31,13.00
2014,05,01,00,32,12.90
2014,05,01,00,33,12.90
2014,05,01,00,34,12.90
2014,05,01,00,35,12.90
2014,05,01,00,36,12.80
2014,05,01,00,37,12.80
2014,05,01,00,38,12.80
2014,05,01,00,39,12.80
2014,05,01,00,40,12.70
2014,05,01,00,41,12.70
2014,05,01,00,42,12.70
2014,05,01,00,43,12.70
2014,05,01,00,44,12.60
2014,05,01,00,45,12.60
2014,05,01,00,46,12.60
2014,05,01,00,47,12.60
2014,05,01,00,48,12.60
2014,05,01,00,49,12.50
2014,05,01,00,50,12.50
2014,05,01,00,51,12.50
2014,05,01,00,52,12.40
2014,05,01,00,53,12.40
2014,05,01,00,54,12.40
2014,05,01,00,55,12.40
2014,05,01,00,56,12.40
2014,05,01,00,57,12.30
2014,05,01,00,58,12.30
2014,05,01,00,59,12.30
2014,05,01,01,00,12.30
2014,05,01,01,01,12.30
2014,05,01,01,02,12.30
2014,05,01,01,03,12.30
2014,05,01,01,04,12.30
2014,05,01,01,05,12.30
2014,05,01,01,06,12.30
2014,05,01,01,07,12.30
2014,05,01,01,08,12.30
2014,05,01,01,09,12.20
2014,05,01,01,10,12.20
2014,05,01,01,11,12.20
2014,05,01,01,12,12.20
2014,05,01,01,13,12.20
2014,05,01,01,14,12.20
2014,05,01,01,15,12.10
2014,05,01,01,16,12.10
2014,05,01,01,17,12.10
2014,05,01,01,18,12.10
2014,05,01,01,19,12.10
2014,05,01,01,20,12.00
2014,05,01,01,21,12.00
2014,05,01,01,22,12.00
2014,05,01,01,23,11.90
2014,05,01,01,24,11.90
2014,05,01,01,25,11.90
2014,05,01,01,26,11.90
2014,05,01,01,27,11.90
2014,05,01,01,28,11.90
2014,05,01,01,29,11.80
2014,05,01,01,30,11.80
2014,05,01,01,31,11.80
2014,05,01,01,32,11.80
2014,05,01,01,33,11.80
2014,05,01,01,34,11.80
2014,05,01,01,35,11.70
2014,05,01,01,36,11.70
2014,05,01,01,37,11.70
2014,05,01,01,38,11.70
2014,05,01,01,39,11.70
2014,05,01,01,40,11.60
2014,05,01,01,41,11.60
2014,05,01,01,42,11.60
2014,05,01,01,43,11.60
2014,05,01,01,44,11.50
2014,05,01,01,45,11.50
2014,05,01,01,46,11.50
2014,05,01,01,47,11.40
2014,05,01,01,48,11.40
2014,05,01,01,49,11.40
2014,05,01,01,50,11.40
2014,05,01,01,51,11.40
2014,05,01,01,52,11.40
2014,05,01,01,53,11.40
2014,05,01,01,54,11.30
2014,05,01,01,55,11.30
2014,05,01,01,56,11.30
2014,05,01,01,57,11.30
2014,05,01,01,58,11.30
2014,05,01,01,59,11.30
2014,05,01,02,00,11.30
2014,05,01,02,01,11.30
2014,05,01,02,02,11.30
2014,05,01,02,03,11.20
2014,05,01,02,04,11.20
2014,05,01,02,05,11.20
2014,05,01,02,06,11.20
2014,05,01,02,07,11.20
2014,05,01,02,08,11.20
2014,05,01,02,09,11.20
2014,05,01,02,10,11.20
2014,05,01,02,11,11.20
2014,05,01,02,12,11.20
2014,05,01,02,13,11.20
2014,05,01,02,14,11.20
2014,05,01,02,15,11.20
2014,05,01,02,16,11.20
2014,05,01,02,17,11.20
2014,05,01,02,18,11.20
2014,05,01,02,19,11.20
2014,05,01,02,20,11.20
2014,05,01,02,21,11.20
2014,05,01,02,22,11.20
2014,05,01,02,23,11.20
2014,05,01,02,24,11.20
2014,05,01,02,25,11.20
2014,05,01,02,26,11.20
2014,05,01,02,27,11.20
2014,05,01,02,28,11.20
2014,05,01,02,29,11.20
2014,05,01,02,30,11.20
2014,05,01,02,31,11.10
2014,05,01,02,32,11.10
2014,05,01,02,33,11.10
2014,05,01,02,34,11.10
2014,05,01,02,35,11.10
2014,05,01,02,36,11.10
2014,05,01,02,37,11.10
2014,05,01,02,38,11.10
2014,05,01,02,39,11.10
2014,05,01,02,40,11.10
2014,05,01,02,41,11.10
2014,05,01,02,42,11.10
2014,05,01,02,43,11.00
2014,05,01,02,44,11.00
2014,05,01,02,45,11.00
2014,05,01,02,46,11.00
2014,05,01,02,47,11.00
2014,05,01,02,48,10.90
2014,05,01,02,49,10.90
2014,05,01,02,50,10.90
2014,05,01,02,51,10.90
2014,05,01,02,52,10.90
2014,05,01,02,53,10.80
2014,05,01,02,54,10.80
2014,05,01,02,55,10.80
2014,05,01,02,56,10.80
2014,05,01,02,57,10.80
2014,05,01,02,58,10.80
2014,05,01,02,59,10.80
2014,05,01,03,00,10.80
2014,05,01,03,01,10.70
2014,05,01,03,02,10.70
2014,05,01,03,03,10.70
2014,05,01,03,04,10.70
2014,05,01,03,05,10.70
2014,05,01,03,06,10.70
2014,05,01,03,07,10.60
2014,05,01,03,08,10.60
2014,05,01,03,09,10.60
2014,05,01,03,10,10.60
2014,05,01,03,11,10.60
2014,05,01,03,12,10.60
2014,05,01,03,13,10.50
2014,05,01,03,14,10.50
2014,05,01,03,15,10.50
2014,05,01,03,16,10.40
2014,05,01,03,17,10.40
2014,05,01,03,18,10.40
2014,05,01,03,19,10.40
2014,05,01,03,20,10.40
2014,05,01,03,21,10.40
2014,05,01,03,22,10.40
2014,05,01,03,23,10.40
2014,05,01,03,24,10.40
2014,05,01,03,25,10.40
2014,05,01,03,26,10.30
2014,05,01,03,27,10.30
2014,05,01,03,28,10.30
2014,05,01,03,29,10.30
2014,05,01,03,30,10.30
2014,05,01,03,31,10.30
2014,05,01,03,32,10.30
2014,05,01,03,33,10.30
2014,05,01,03,34,10.30
2014,05,01,03,35,10.30
2014,05,01,03,36,10.20
2014,05,01,03,37,10.20
2014,05,01,03,38,10.20
2014,05,01,03,39,10.20
2014,05,01,03,40,10.20
2014,05,01,03,41,10.20
2014,05,01,03,42,10.20
2014,05,01,03,43,10.20
2014,05,01,03,44,10.20
2014,05,01,03,45,10.20
2014,05,01,03,46,10.20
2014,05,01,03,47,10.20
2014,05,01,03,48,10.20
2014,05,01,03,49,10.20
2014,05,01,03,50,10.10
2014,05,01,03,51,10.10
2014,05,01,03,52,10.10
2014,05,01,03,53,10.10
2014,05,01,03,54,10.10
2014,05,01,03,55,10.10
2014,05,01,03,56,10.10
2014,05,01,03,57,10.10
2014,05,01,03,58,10.10
2014,05,01,03,59,10.10
2014,05,01,04,00,10.10
2014,05,01,04,01,10.10
2014,05,01,04,02,10.10
2014,05,01,04,03,10.10
2014,05,01,04,04,10.10
2014,05,01,04,05,10.10
2014,05,01,04,06,10.10
2014,05,01,04,07,10.10
2014,05,01,04,08,10.10
2014,05,01,04,09,10.10
2014,05,01,04,10,10.10
2014,05,01,04,11,10.10
2014,05,01,04,12,10.20
2014,05,01,04,13,10.20
2014,05,01,04,14,10.20
2014,05,01,04,15,10.20
2014,05,01,04,16,10.20
2014,05,01,04,17,10.20
2014,05,01,04,18,10.30
2014,05,01,04,19,10.40
2014,05,01,04,20,10.50
2014,05,01,04,21,10.60
2014,05,01,04,22,10.80
2014,05,01,04,23,10.90
2014,05,01,04,24,11.10
2014,05,01,04,25,11.20
2014,05,01,04,26,11.30
2014,05,01,04,27,11.40
2014,05,01,04,28,11.50
2014,05,01,04,29,11.50
2014,05,01,04,30,11.60
2014,05,01,04,31,11.60
2014,05,01,04,32,11.70
2014,05,01,04,33,11.70
2014,05,01,04,34,11.70
2014,05,01,04,35,11.80
2014,05,01,04,36,11.80
2014,05,01,04,37,11.80
2014,05,01,04,38,11.80
2014,05,01,04,39,11.80
2014,05,01,04,40,11.80
2014,05,01,04,41,11.70
2014,05,01,04,42,11.70
2014,05,01,04,43,11.70
2014,05,01,04,44,11.70
2014,05,01,04,45,11.60
2014,05,01,04,46,11.60
2014,05,01,04,47,11.60
2014,05,01,04,48,11.50
2014,05,01,04,49,11.50
2014,05,01,04,50,11.50
2014,05,01,04,51,11.40
2014,05,01,04,52,11.40
2014,05,01,04,53,11.40
2014,05,01,04,54,11.30
2014,05,01,04,55,11.30
2014,05,01,04,56,11.20
2014,05,01,04,57,11.20
2014,05,01,04,58,11.20
2014,05,01,04,59,11.20
2014,05,01,05,00,11.10
2014,05,01,05,01,11.10
2014,05,01,05,02,11.10
2014,05,01,05,03,11.00
2014,05,01,05,04,11.00
2014,05,01,05,05,11.00
2014,05,01,05,06,10.90
2014,05,01,05,07,10.90
2014,05,01,05,08,10.90
2014,05,01,05,09,10.90
2014,05,01,05,10,10.80
2014,05,01,05,11,10.80
2014,05,01,05,12,10.80
2014,05,01,05,13,10.80
2014,05,01,05,14,10.80
2014,05,01,05,15,10.80
2014,05,01,05,16,10.80
2014,05,01,05,17,10.80
2014,05,01,05,18,10.80
2014,05,01,05,19,10.80
2014,05,01,05,20,10.80
2014,05,01,05,21,10.90
2014,05,01,05,22,10.90
2014,05,01,05,23,10.80
2014,05,01,05,24,10.80
2014,05,01,05,25,10.80
2014,05,01,05,26,10.80
2014,05,01,05,27,10.80
2014,05,01,05,28,10.80
2014,05,01,05,29,10.80
2014,05,01,05,30,10.80
2014,05,01,05,31,10.80
2014,05,01,05,32,10.80
2014,05,01,05,33,10.80
2014,05,01,05,34,10.80
2014,05,01,05,35,10.80
2014,05,01,05,36,10.80
2014,05,01,05,37,10.80
2014,05,01,05,38,10.70
2014,05,01,05,39,10.70
2014,05,01,05,40,10.70
2014,05,01,05,41,10.70
2014,05,01,05,42,10.70
2014,05,01,05,43,10.70
2014,05,01,05,44,10.70
2014,05,01,05,45,10.70
2014,05,01,05,46,10.60
2014,05,01,05,47,10.60
2014,05,01,05,48,10.60
2014,05,01,05,49,10.60
2014,05,01,05,50,10.60
2014,05,01,05,51,10.50
2014,05,01,05,52,10.50
2014,05,01,05,53,10.50
2014,05,01,05,54,10.50
2014,05,01,05,55,10.40
2014,05,01,05,56,10.40
2014,05,01,05,57,10.40
2014,05,01,05,58,10.40
2014,05,01,05,59,10.40
2014,05,01,06,00,10.40
2014,05,01,06,01,10.40
2014,05,01,06,02,10.40
2014,05,01,06,03,10.40
2014,05,01,06,04,10.40
2014,05,01,06,05,10.50
2014,05,01,06,06,10.50
2014,05,01,06,07,10.50
2014,05,01,06,08,10.50
2014,05,01,06,09,10.50
2014,05,01,06,10,10.50
2014,05,01,06,11,10.60
2014,05,01,06,12,10.70
2014,05,01,06,13,10.80
2014,05,01,06,14,10.90
2014,05,01,06,15,11.10
2014,05,01,06,16,11.20
2014,05,01,06,17,11.30
2014,05,01,06,18,11.50
2014,05,01,06,19,11.60
2014,05,01,06,20,11.70
2014,05,01,06,21,11.80
2014,05,01,06,22,12.00
2014,05,01,06,23,12.10
2014,05,01,06,24,12.20
2014,05,01,06,25,12.40
2014,05,01,06,26,12.50
2014,05,01,06,27,12.60
2014,05,01,06,28,12.80
2014,05,01,06,29,13.00
2014,05,01,06,30,13.10
2014,05,01,06,31,13.30
2014,05,01,06,32,13.40
2014,05,01,06,33,13.60
2014,05,01,06,34,13.70
2014,05,01,06,35,13.80
2014,05,01,06,36,13.90
2014,05,01,06,37,14.00
2014,05,01,06,38,14.10
2014,05,01,06,39,14.20
2014,05,01,06,40,14.30
2014,05,01,06,41,14.40
2014,05,01,06,42,14.40
2014,05,01,06,43,14.50
2014,05,01,06,44,14.50
2014,05,01,06,45,14.60
2014,05,01,06,46,14.70
2014,05,01,06,47,14.70
2014,05,01,06,48,14.70
2014,05,01,06,49,14.80
2014,05,01,06,50,14.80
2014,05,01,06,51,14.90
2014,05,01,06,52,14.90
2014,05,01,06,53,15.00
2014,05,01,06,54,15.10
2014,05,01,06,55,15.20
2014,05,01,06,56,15.20
2014,05,01,06,57,15.30
2014,05,01,06,58,15.30
2014,05,01,06,59,15.30
2014,05,01,07,00,15.30
2014,05,01,07,01,15.30
2014,05,01,07,02,15.30
2014,05,01,07,03,15.30
2014,05,01,07,04,15.20
2014,05,01,07,05,15.10
2014,05,01,07,06,15.10
2014,05,01,07,07,15.00
2014,05,01,07,08,14.90
2014,05,01,07,09,14.80
2014,05,01,07,10,14.80
2014,05,01,07,11,14.70
2014,05,01,07,12,14.70
2014,05,01,07,13,14.70
2014,05,01,07,14,14.70
2014,05,01,07,15,14.70
2014,05,01,07,16,14.70
2014,05,01,07,17,14.70
2014,05,01,07,18,14.70
2014,05,01,07,19,14.70
2014,05,01,07,20,14.60
2014,05,01,07,21,14.60
2014,05,01,07,22,14.60
2014,05,01,07,23,14.60
2014,05,01,07,24,14.50
2014,05,01,07,25,14.50
2014,05,01,07,26,14.40
2014,05,01,07,27,14.40
2014,05,01,07,28,14.40
2014,05,01,07,29,14.40
2014,05,01,07,30,14.40
2014,05,01,07,31,14.30
2014,05,01,07,32,14.30
2014,05,01,07,33,14.30
2014,05,01,07,34,14.30
2014,05,01,07,35,14.30
2014,05,01,07,36,14.20
2014,05,01,07,37,14.20
2014,05,01,07,38,14.20
2014,05,01,07,39,14.10
2014,05,01,07,40,14.10
2014,05,01,07,41,14.10
2014,05,01,07,42,14.00
2014,05,01,07,43,14.00
2014,05,01,07,44,13.90
2014,05,01,07,45,13.90
2014,05,01,07,46,13.80
2014,05,01,07,47,13.80
2014,05,01,07,48,13.80
2014,05,01,07,49,13.80
2014,05,01,07,50,13.80
2014,05,01,07,51,13.80
2014,05,01,07,52,13.80
2014,05,01,07,53,13.90
2014,05,01,07,54,13.90
2014,05,01,07,55,14.00
2014,05,01,07,56,14.20
2014,05,01,07,57,14.30
2014,05,01,07,58,14.40
2014,05,01,07,59,14.50
2014,05,01,08,00,14.60
2014,05,01,08,01,14.70
2014,05,01,08,02,14.80
2014,05,01,08,03,14.90
2014,05,01,08,04,15.00
2014,05,01,08,05,15.30
2014,05,01,08,06,15.60
2014,05,01,08,07,15.80
2014,05,01,08,08,16.00
2014,05,01,08,09,16.10
2014,05,01,08,10,16.30
2014,05,01,08,11,16.40
2014,05,01,08,12,16.60
2014,05,01,08,13,16.70
2014,05,01,08,14,16.80
2014,05,01,08,15,17.00
2014,05,01,08,16,17.10
2014,05,01,08,17,17.20
2014,05,01,08,18,17.30
2014,05,01,08,19,17.40
2014,05,01,08,20,17.50
2014,05,01,08,21,17.60
2014,05,01,08,22,17.70
2014,05,01,08,23,17.70
2014,05,01,08,24,17.80
2014,05,01,08,25,17.90
2014,05,01,08,26,17.90
2014,05,01,08,27,18.00
2014,05,01,08,28,18.10
2014,05,01,08,29,18.10
2014,05,01,08,30,18.20
2014,05,01,08,31,18.20
2014,05,01,08,32,18.30
2014,05,01,08,33,18.30
2014,05,01,08,34,18.30
2014,05,01,08,35,18.40
2014,05,01,08,36,18.40
2014,05,01,08,37,18.40
2014,05,01,08,38,18.40
2014,05,01,08,39,18.50
2014,05,01,08,40,18.50
2014,05,01,08,41,18.50
2014,05,01,08,42,18.50
2014,05,01,08,43,18.50
2014,05,01,08,44,18.50
2014,05,01,08,45,18.60
2014,05,01,08,46,18.60
2014,05,01,08,47,18.60
2014,05,01,08,48,18.60
2014,05,01,08,49,18.60
2014,05,01,08,50,18.60
2014,05,01,08,51,18.70
2014,05,01,08,52,18.70
2014,05,01,08,53,18.70
2014,05,01,08,54,18.70
2014,05,01,08,55,18.70
2014,05,01,08,56,18.70
2014,05,01,08,57,18.70
2014,05,01,08,58,18.70
2014,05,01,08,59,18.70
2014,05,01,09,00,18.70
2014,05,01,09,01,18.70
2014,05,01,09,02,18.70
2014,05,01,09,03,18.70
2014,05,01,09,04,18.70
2014,05,01,09,05,18.80
2014,05,01,09,06,18.80
2014,05,01,09,07,18.80
2014,05,01,09,08,18.80
2014,05,01,09,09,18.90
2014,05,01,09,10,18.90
2014,05,01,09,11,19.00
2014,05,01,09,12,19.00
2014,05,01,09,13,19.10
2014,05,01,09,14,19.10
2014,05,01,09,15,19.10
2014,05,01,09,16,19.10
2014,05,01,09,17,19.10
2014,05,01,09,18,19.10
2014,05,01,09,19,19.10
2014,05,01,09,20,19.10
2014,05,01,09,21,19.10
2014,05,01,09,22,19.20
2014,05,01,09,23,19.20
2014,05,01,09,24,19.20
2014,05,01,09,25,19.20
2014,05,01,09,26,19.20
2014,05,01,09,27,19.30
2014,05,01,09,28,19.30
2014,05,01,09,29,19.30
2014,05,01,09,30,19.30
2014,05,01,09,31,19.40
2014,05,01,09,32,19.40
2014,05,01,09,33,19.50
2014,05,01,09,34,19.50
2014,05,01,09,35,19.60
2014,05,01,09,36,19.60
2014,05,01,09,37,19.70
2014,05,01,09,38,19.80
2014,05,01,09,39,19.80
2014,05,01,09,40,19.90
2014,05,01,09,41,19.90
2014,05,01,09,42,20.00
2014,05,01,09,43,20.10
2014,05,01,09,44,20.10
2014,05,01,09,45,20.20
2014,05,01,09,46,20.20
2014,05,01,09,47,20.20
2014,05,01,09,48,20.20
2014,05,01,09,49,20.20
2014,05,01,09,50,20.30
2014,05,01,09,51,20.30
2014,05,01,09,52,20.30
2014,05,01,09,53,20.40
2014,05,01,09,54,20.40
2014,05,01,09,55,20.40
2014,05,01,09,56,20.40
2014,05,01,09,57,20.50
2014,05,01,09,58,20.50
2014,05,01,09,59,20.60
2014,05,01,10,00,20.60
2014,05,01,10,01,20.60
2014,05,01,10,02,20.60
2014,05,01,10,03,20.60
2014,05,01,10,04,20.60
2014,05,01,10,05,20.60
2014,05,01,10,06,20.60
2014,05,01,10,07,20.60
2014,05,01,10,08,20.60
2014,05,01,10,09,20.70
2014,05,01,10,10,20.70
2014,05,01,10,11,20.70
2014,05,01,10,12,20.70
2014,05,01,10,13,20.60
2014,05,01,10,14,20.60
2014,05,01,10,15,20.50
2014,05,01,10,16,20.60
2014,05,01,10,17,20.60
2014,05,01,10,18,20.60
2014,05,01,10,19,20.60
2014,05,01,10,20,20.70
2014,05,01,10,21,20.80
2014,05,01,10,22,20.90
2014,05,01,10,23,20.90
2014,05,01,10,24,20.90
2014,05,01,10,25,21.00
2014,05,01,10,26,21.00
2014,05,01,10,27,21.10
2014,05,01,10,28,21.10
2014,05,01,10,29,21.20
2014,05,01,10,30,21.30
2014,05,01,10,31,21.30
2014,05,01,10,32,21.30
2014,05,01,10,33,21.40
2014,05,01,10,34,21.40
2014,05,01,10,35,21.50
2014,05,01,10,36,21.60
2014,05,01,10,37,21.60
2014,05,01,10,38,21.70
2014,05,01,10,39,21.70
2014,05,01,10,40,21.70
2014,05,01,10,41,21.70
2014,05,01,10,42,21.70
2014,05,01,10,43,21.70
2014,05,01,10,44,21.80
2014,05,01,10,45,21.80
2014,05,01,10,46,21.80
2014,05,01,10,47,21.80
2014,05,01,10,48,21.90
2014,05,01,10,49,21.90
2014,05,01,10,50,21.90
2014,05,01,10,51,21.90
2014,05,01,10,52,21.80
2014,05,01,10,53,21.80
2014,05,01,10,54,21.70
2014,05,01,10,55,21.70
2014,05,01,10,56,21.70
2014,05,01,10,57,21.80
2014,05,01,10,58,21.80
2014,05,01,10,59,21.90
2014,05,01,11,00,21.90
2014,05,01,11,01,21.80
2014,05,01,11,02,21.80
2014,05,01,11,03,21.80
2014,05,01,11,04,21.80
2014,05,01,11,05,21.80
2014,05,01,11,06,21.80
2014,05,01,11,07,21.90
2014,05,01,11,08,21.90
2014,05,01,11,09,22.00
2014,05,01,11,10,22.00
2014,05,01,11,11,22.10
2014,05,01,11,12,22.10
2014,05,01,11,13,22.20
2014,05,01,11,14,22.30
2014,05,01,11,15,22.30
2014,05,01,11,16,22.30
2014,05,01,11,17,22.40
2014,05,01,11,18,22.50
2014,05,01,11,19,22.60
2014,05,01,11,20,22.60
2014,05,01,11,21,22.70
2014,05,01,11,22,22.70
2014,05,01,11,23,22.70
2014,05,01,11,24,22.70
2014,05,01,11,25,22.70
2014,05,01,11,26,22.70
2014,05,01,11,27,22.70
2014,05,01,11,28,22.70
2014,05,01,11,29,22.70
2014,05,01,11,30,22.70
2014,05,01,11,31,22.80
2014,05,01,11,32,22.80
2014,05,01,11,33,22.90
2014,05,01,11,34,22.90
2014,05,01,11,35,22.90
2014,05,01,11,36,22.90
2014,05,01,11,37,22.90
2014,05,01,11,38,22.90
2014,05,01,11,39,22.90
2014,05,01,11,40,22.90
2014,05,01,11,41,22.80
2014,05,01,11,42,22.80
2014,05,01,11,43,22.80
2014,05,01,11,44,22.80
2014,05,01,11,45,22.80
2014,05,01,11,46,22.80
2014,05,01,11,47,22.90
2014,05,01,11,48,23.00
2014,05,01,11,49,23.00
2014,05,01,11,50,23.10
2014,05,01,11,51,23.10
2014,05,01,11,52,23.10
2014,05,01,11,53,23.00
2014,05,01,11,54,23.00
2014,05,01,11,55,23.00
2014,05,01,11,56,23.00
2014,05,01,11,57,23.00
2014,05,01,11,58,23.00
2014,05,01,11,59,23.00
2014,05,01,12,00,23.00
2014,05,01,12,01,23.00
2014,05,01,12,02,23.10
2014,05,01,12,03,23.10
2014,05,01,12,04,23.20
2014,05,01,12,05,23.20
2014,05,01,12,06,23.30
2014,05,01,12,07,23.30
2014,05,01,12,08,23.30
2014,05,01,12,09,23.30
2014,05,01,12,10,23.30
2014,05,01,12,11,23.30
2014,05,01,12,12,23.30
2014,05,01,12,13,23.30
2014,05,01,12,14,23.30
2014,05,01,12,15,23.40
2014,05,01,12,16,23.40
2014,05,01,12,17,23.50
2014,05,01,12,18,23.50
2014,05,01,12,19,23.60
2014,05,01,12,20,23.70
2014,05,01,12,21,23.70
2014,05,01,12,22,23.70
2014,05,01,12,23,23.70
2014,05,01,12,24,23.80
2014,05,01,12,25,23.80
2014,05,01,12,26,23.90
2014,05,01,12,27,24.00
2014,05,01,12,28,24.10
2014,05,01,12,29,24.10
2014,05,01,12,30,24.20
2014,05,01,12,31,24.20
2014,05,01,12,32,24.10
2014,05,01,12,33,24.10
2014,05,01,12,34,24.20
2014,05,01,12,35,24.20
2014,05,01,12,36,24.20
2014,05,01,12,37,24.20
2014,05,01,12,38,24.20
2014,05,01,12,39,24.30
2014,05,01,12,40,24.40
2014,05,01,12,41,24.40
2014,05,01,12,42,24.40
2014,05,01,12,43,24.40
2014,05,01,12,44,24.40
2014,05,01,12,45,24.40
2014,05,01,12,46,24.40
2014,05,01,12,47,24.40
2014,05,01,12,48,24.50
2014,05,01,12,49,24.50
2014,05,01,12,50,24.60
2014,05,01,12,51,24.60
2014,05,01,12,52,24.70
2014,05,01,12,53,24.70
2014,05,01,12,54,24.80
2014,05,01,12,55,24.80
2014,05,01,12,56,24.90
2014,05,01,12,57,24.90
2014,05,01,12,58,24.80
2014,05,01,12,59,24.70
2014,05,01,13,00,24.70
2014,05,01,13,01,24.70
2014,05,01,13,02,24.70
2014,05,01,13,03,24.70
2014,05,01,13,04,24.80
2014,05,01,13,05,24.80
2014,05,01,13,06,24.90
2014,05,01,13,07,25.00
2014,05,01,13,08,25.10
2014,05,01,13,09,25.00
2014,05,01,13,10,25.00
2014,05,01,13,11,24.90
2014,05,01,13,12,24.90
2014,05,01,13,13,24.90
2014,05,01,13,14,24.90
2014,05,01,13,15,25.00
2014,05,01,13,16,25.10
2014,05,01,13,17,25.10
2014,05,01,13,18,25.20
2014,05,01,13,19,25.10
2014,05,01,13,20,25.10
2014,05,01,13,21,25.00
2014,05,01,13,22,25.00
2014,05,01,13,23,25.00
2014,05,01,13,24,25.10
2014,05,01,13,25,25.10
2014,05,01,13,26,25.10
2014,05,01,13,27,25.10
2014,05,01,13,28,25.20
2014,05,01,13,29,25.20
2014,05,01,13,30,25.30
2014,05,01,13,31,25.30
2014,05,01,13,32,25.30
2014,05,01,13,33,25.40
2014,05,01,13,34,25.50
2014,05,01,13,35,25.50
2014,05,01,13,36,25.60
2014,05,01,13,37,25.70
2014,05,01,13,38,25.70
2014,05,01,13,39,25.80
2014,05,01,13,40,25.80
2014,05,01,13,41,25.80
2014,05,01,13,42,25.80
2014,05,01,13,43,25.60
2014,05,01,13,44,25.60
2014,05,01,13,45,25.50
2014,05,01,13,46,25.50
2014,05,01,13,47,25.40
2014,05,01,13,48,25.40
2014,05,01,13,49,25.40
2014,05,01,13,50,25.40
2014,05,01,13,51,25.50
2014,05,01,13,52,25.50
2014,05,01,13,53,25.50
2014,05,01,13,54,25.50
2014,05,01,13,55,25.40
2014,05,01,13,56,25.30
2014,05,01,13,57,25.20
2014,05,01,13,58,25.10
2014,05,01,13,59,24.90
2014,05,01,14,00,24.80
2014,05,01,14,01,24.70
2014,05,01,14,02,24.60
2014,05,01,14,03,24.60
2014,05,01,14,04,24.60
2014,05,01,14,05,24.60
2014,05,01,14,06,24.60
2014,05,01,14,07,24.60
2014,05,01,14,08,24.60
2014,05,01,14,09,24.70
2014,05,01,14,10,24.60
2014,05,01,14,11,24.50
2014,05,01,14,12,24.40
2014,05,01,14,13,24.40
2014,05,01,14,14,24.30
2014,05,01,14,15,24.20
2014,05,01,14,16,24.10
2014,05,01,14,17,23.90
2014,05,01,14,18,23.80
2014,05,01,14,19,23.80
2014,05,01,14,20,23.70
2014,05,01,14,21,23.60
2014,05,01,14,22,23.60
2014,05,01,14,23,23.50
2014,05,01,14,24,23.50
2014,05,01,14,25,23.50
2014,05,01,14,26,23.50
2014,05,01,14,27,23.50
2014,05,01,14,28,23.40
2014,05,01,14,29,23.50
2014,05,01,14,30,23.50
2014,05,01,14,31,23.50
2014,05,01,14,32,23.60
2014,05,01,14,33,23.60
2014,05,01,14,34,23.70
2014,05,01,14,35,23.70
2014,05,01,14,36,23.70
2014,05,01,14,37,23.70
2014,05,01,14,38,23.70
2014,05,01,14,39,23.70
2014,05,01,14,40,23.70
2014,05,01,14,41,23.70
2014,05,01,14,42,23.70
2014,05,01,14,43,23.70
2014,05,01,14,44,23.60
2014,05,01,14,45,23.60
2014,05,01,14,46,23.60
2014,05,01,14,47,23.60
2014,05,01,14,48,23.60
2014,05,01,14,49,23.60
2014,05,01,14,50,23.60
2014,05,01,14,51,23.60
2014,05,01,14,52,23.60
2014,05,01,14,53,23.60
2014,05,01,14,54,23.60
2014,05,01,14,55,23.60
2014,05,01,14,56,23.60
2014,05,01,14,57,23.60
2014,05,01,14,58,23.50
2014,05,01,14,59,23.50
2014,05,01,15,00,23.60
2014,05,01,15,01,23.60
2014,05,01,15,02,23.60
2014,05,01,15,03,23.70
2014,05,01,15,04,23.60
2014,05,01,15,05,23.60
2014,05,01,15,06,23.60
2014,05,01,15,07,23.50
2014,05,01,15,08,23.50
2014,05,01,15,09,23.40
2014,05,01,15,10,23.40
2014,05,01,15,11,23.30
2014,05,01,15,12,23.30
2014,05,01,15,13,23.20
2014,05,01,15,14,23.20
2014,05,01,15,15,23.20
2014,05,01,15,16,23.20
2014,05,01,15,17,23.20
2014,05,01,15,18,23.20
2014,05,01,15,19,23.20
2014,05,01,15,20,23.20
2014,05,01,15,21,23.20
2014,05,01,15,22,23.30
2014,05,01,15,23,23.30
2014,05,01,15,24,23.30
2014,05,01,15,25,23.30
2014,05,01,15,26,23.30
2014,05,01,15,27,23.40
2014,05,01,15,28,23.50
2014,05,01,15,29,23.50
2014,05,01,15,30,23.60
2014,05,01,15,31,23.60
2014,05,01,15,32,23.60
2014,05,01,15,33,23.70
2014,05,01,15,34,23.70
2014,05,01,15,35,23.70
2014,05,01,15,36,23.70
2014,05,01,15,37,23.70
2014,05,01,15,38,23.70
2014,05,01,15,39,23.80
2014,05,01,15,40,23.80
2014,05,01,15,41,23.80
2014,05,01,15,42,23.90
2014,05,01,15,43,23.90
2014,05,01,15,44,23.80
2014,05,01,15,45,23.80
2014,05,01,15,46,23.80
2014,05,01,15,47,23.80
2014,05,01,15,48,23.70
2014,05,01,15,49,23.70
2014,05,01,15,50,23.70
2014,05,01,15,51,23.70
2014,05,01,15,52,23.70
2014,05,01,15,53,23.70
2014,05,01,15,54,23.70
2014,05,01,15,55,23.70
2014,05,01,15,56,23.70
2014,05,01,15,57,23.70
2014,05,01,15,58,23.70
2014,05,01,15,59,23.70
2014,05,01,16,00,23.70
2014,05,01,16,01,23.60
2014,05,01,16,02,23.60
2014,05,01,16,03,23.60
2014,05,01,16,04,23.60
2014,05,01,16,05,23.50
2014,05,01,16,06,23.60
2014,05,01,16,07,23.60
2014,05,01,16,08,23.60
2014,05,01,16,09,23.60
2014,05,01,16,10,23.60
2014,05,01,16,11,23.70
2014,05,01,16,12,23.70
2014,05,01,16,13,23.70
2014,05,01,16,14,23.70
2014,05,01,16,15,23.70
2014,05,01,16,16,23.70
2014,05,01,16,17,23.70
2014,05,01,16,18,23.70
2014,05,01,16,19,23.70
2014,05,01,16,20,23.70
2014,05,01,16,21,23.70
2014,05,01,16,22,23.70
2014,05,01,16,23,23.80
2014,05,01,16,24,23.80
2014,05,01,16,25,23.80
2014,05,01,16,26,23.80
2014,05,01,16,27,23.90
2014,05,01,16,28,23.90
2014,05,01,16,29,23.90
2014,05,01,16,30,23.90
2014,05,01,16,31,23.90
2014,05,01,16,32,24.00
2014,05,01,16,33,24.00
2014,05,01,16,34,24.10
2014,05,01,16,35,24.10
2014,05,01,16,36,24.10
2014,05,01,16,37,24.20
2014,05,01,16,38,24.20
2014,05,01,16,39,24.20
2014,05,01,16,40,24.20
2014,05,01,16,41,24.20
2014,05,01,16,42,24.20
2014,05,01,16,43,24.20
2014,05,01,16,44,24.20
2014,05,01,16,45,24.20
2014,05,01,16,46,24.20
2014,05,01,16,47,24.30
2014,05,01,16,48,24.30
2014,05,01,16,49,24.30
2014,05,01,16,50,24.30
2014,05,01,16,51,24.30
2014,05,01,16,52,24.30
2014,05,01,16,53,24.30
2014,05,01,16,54,24.20
2014,05,01,16,55,24.20
2014,05,01,16,56,24.10
2014,05,01,16,57,24.10
2014,05,01,16,58,24.00
2014,05,01,16,59,23.90
2014,05,01,17,00,23.90
2014,05,01,17,01,23.90
2014,05,01,17,02,23.80
2014,05,01,17,03,23.80
2014,05,01,17,04,23.80
2014,05,01,17,05,23.80
2014,05,01,17,06,23.80
2014,05,01,17,07,23.80
2014,05,01,17,08,23.80
2014,05,01,17,09,23.80
2014,05,01,17,10,23.80
2014,05,01,17,11,23.80
2014,05,01,17,12,23.80
2014,05,01,17,13,23.80
2014,05,01,17,14,23.80
2014,05,01,17,15,23.80
2014,05,01,17,16,23.80
2014,05,01,17,17,23.70
2014,05,01,17,18,23.70
2014,05,01,17,19,23.70